Vorticity
5 8 6 5 2 3 3 7 7 8 8 8 7 6 7 7 5 6 4 4 8 7 5 6 7 8 9 9 9 7 5 1 3 9 7 7 5 6 5 8 7 7 7 7 6
7 6 9 8 6 8 7 6 7 9 7 8 9 8 7 7 7 8 8 11 13 7 6 7 8 7 9 9 9 10 5 14 12 11 8 6 4 3 5 7 7 9 7 7 6
6 8 7 7 7 6 5 4 5 4 5 6 7 8 9 9 8 16 22 19 11 0 6 7 7 6 7 7 5 3 3 8 6 6 7 7 8 5 6 6 8 8 4 3 5
8 10 10 10 10 10 9 7 5 4 4 4 7 9 11 15 16 8 5 -1 -3 10 10 7 9 10 10 10 10 9 9 8 7 7 7 7 6 6 5 9 8 7 8 10 10
5 6 7 8 10 12 12 12 11 9 7 8 7 8 11 15 11 10 11 14 11 7 4 8 5 5 7 6 8 6 9 10 10 8 8 6 7 6 9 7 6 7 8 9 7
5 4 3 7 7 8 10 12 14 12 12 9 9 8 10 12 14 12 12 12 2 6 12 10 5 2 5 11 12 4 5 6 7 10 8 7 7 8 10 15 12 11 8 6 4
2 2 4 4 6 8 8 11 12 13 13 11 10 9 10 11 16 9 8 5 7 11 7 4 -2 1 4 13 22 15 8 1 4 15 26 23 14 20 8 11 11 6 11 22 22
5 5 6 4 4 8 9 11 11 12 12 11 11 11 13 12 10 9 7 13 9 8 3 -3 2 12 18 12 5 6 20 21 18 -1 7 12 -5 18 6 5 5 7 14 14 10
7 8 7 5 6 4 8 10 10 13 12 11 10 12 22 22 20 14 14 11 3 -1 8 25 26 18 13 9 12 19 -2 5 11 7 -2 12 -1 -2 -6 7 11 10 7 5 5
6 5 6 7 5 7 6 9 10 11 13 11 20 21 18 7 7 4 -4 -0 11 24 12 13 13 11 14 12 -2 4 -0 -2 -0 -0 -4 7 7 9 6 6 7 10 9 8 8
3 5 6 7 6 5 8 9 10 12 15 5 -0 0 2 2 2 -7 9 16 16 6 8 10 8 3 1 -0 7 1 5 9 2 6 10 15 2 9 13 7 5 8 5 2 3
5 3 2 5 7 7 5 9 10 3 13 9 9 12 13 11 13 19 15 11 9 8 10 8 13 21 27 19 13 10 2 5 14 9 -6 14 6 27 35 39 40 37 24 7 6
4 6 4 4 6 8 6 8 8 10 14 14 23 16 13 18 13 12 13 9 0 -3 6 4 -7 1 -0 -2 7 17 10 7 9 10 12 22 48 10 -6 -7 3 8 16 20 22
10 9 8 5 13 10 5 9 10 10 25 24 22 24 17 9 13 11 7 -6 11 9 1 27 21 14 3 5 6 2 15 7 5 17 5 -20 2 -10 36 22 23 18 16 14 8
24 23 15 21 12 12 8 12 13 15 15 23 15 10 7 2 7 13 9 10 6 6 7 -0 0 3 2 6 9 0 8 5 5 12 19 32 12 5 3 12 7 7 6 2 -6
9 28 13 7 14 16 16 19 21 19 16 8 8 13 3 3 1 2 3 6 9 11 15 13 12 14 14 10 7 3 9 16 26 24 13 14 2 13 11 7 4 7 -5 1 10
45 -34 33 15 8 19 17 11 6 -0 18 22 9 8 3 1 1 6 10 11 3 8 14 -1 7 21 17 14 16 12 12 11 10 8 1 7 17 -3 2 3 8 -1 -3 5 18
48 16 19 7 13 17 28 4 -1 14 2 9 11 13 2 -1 19 21 9 7 9 10 15 14 18 12 13 9 -1 4 -2 -1 9 7 -1 7 14 13 10 2 4 -3 -0 18 15
19 67 -36 39 6 13 21 4 0 27 23 16 8 8 1 25 2 5 14 11 6 15 0 6 17 3 3 9 7 16 14 19 -0 13 10 9 17 17 26 14 -10 2 12 17 9
25 38 6 45 7 13 17 -7 -5 8 3 15 10 11 12 15 -1 8 11 12 7 14 20 15 10 14 16 14 14 7 4 10 13 7 11 17 13 5 5 -6 -2 -3 26 15 11
22 14 27 31 17 11 11 -13 27 -10 -12 10 10 6 8 3 2 3 8 7 -0 3 -1 8 14 4 5 8 10 17 6 7 2 4 7 5 18 5 1 -6 -11 19 21 7 11
49 2 11 20 14 15 8 -2 4 13 -4 8 6 19 5 14 15 6 1 6 6 6 11 18 8 3 2 5 14 9 3 12 -6 20 2 2 14 13 -10 -11 19 20 10 11 10
33 30 4 19 5 5 13 8 -6 7 16 15 14 7 4 11 5 9 5 8 7 3 12 0 11 10 18 28 25 16 16 15 2 -9 13 -2 12 6 -24 -18 14 18 6 11 13
22 17 23 5 6 1 4 8 13 25 16 10 10 7 9 11 4 11 11 7 9 -0 3 7 17 -0 -26 -24 -25 -13 -1 8 13 9 9 -24 -34 -27 -20 -14 11 14 12 12 11
-5 21 -1 9 19 15 8 -6 34 -7 8 20 15 8 10 7 9 5 7 14 11 2 15 18 8 8 10 13 8 5 9 9 8 1 -9 -9 -2 10 -23 17 14 10 13 13 9
2 17 17 3 6 0 22 14 7 22 -2 3 6 21 5 5 -4 18 1 -4 20 11 6 7 3 -12 10 50 37 17 6 8 19 16 10 5 2 33 11 15 12 9 11 13 8
15 2 35 4 17 1 12 12 22 8 9 9 18 6 5 5 5 5 4 7 1 1 3 16 25 3 21 -4 -7 45 6 27 38 18 13 14 16 18 3 11 11 14 13 11 9
Height
3112 3110 3107 3104 3101 3098 3096 3094 3092 3091 3090 3087 3084 3083 3082 3082 3080 3079 3078 3078 3076 3075 3074 3074 3073 3073 3073 3072 3073 3072 3073 3070 3070 3071 3071 3072 3072 3072 3072 3073 3074 3074 3074 3075 3075
3109 3106 3103 3102 3098 3095 3092 3090 3087 3085 3084 3083 3082 3079 3076 3075 3074 3073 3074 3071 3071 3070 3070 3070 3069 3068 3069 3069 3068 3068 3067 3067 3068 3067 3067 3067 3067 3067 3068 3068 3069 3069 3070 3069 3070
3104 3101 3099 3096 3094 3091 3088 3084 3082 3079 3078 3078 3076 3076 3073 3071 3069 3066 3066 3066 3066 3066 3066 3065 3065 3064 3065 3064 3064 3063 3062 3063 3063 3063 3062 3062 3062 3061 3061 3063 3063 3063 3063 3063 3064
3100 3097 3093 3091 3088 3085 3083 3080 3076 3074 3071 3069 3069 3069 3067 3067 3067 3062 3061 3062 3062 3061 3061 3061 3060 3060 3061 3060 3059 3058 3058 3058 3058 3057 3056 3056 3056 3055 3056 3059 3056 3056 3057 3057 3058
3096 3093 3089 3087 3084 3079 3076 3074 3071 3068 3066 3063 3062 3062 3062 3062 3060 3058 3056 3056 3056 3056 3056 3056 3056 3056 3056 3055 3054 3053 3053 3052 3053 3052 3050 3049 3050 3048 3049 3049 3049 3050 3050 3050 3051
3093 3090 3086 3083 3079 3075 3072 3068 3066 3063 3060 3058 3056 3055 3055 3056 3053 3052 3051 3052 3051 3051 3051 3051 3052 3052 3050 3050 3050 3048 3048 3048 3047 3047 3044 3043 3044 3041 3043 3041 3040 3041 3041 3041 3042
3089 3085 3081 3077 3075 3071 3067 3063 3060 3057 3054 3052 3050 3049 3048 3050 3048 3047 3046 3047 3046 3045 3046 3047 3047 3047 3045 3045 3044 3043 3043 3043 3042 3040 3038 3038 3038 3036 3035 3035 3034 3033 3033 3033 3033
3085 3081 3078 3073 3070 3067 3062 3059 3054 3052 3049 3046 3044 3042 3042 3042 3042 3041 3041 3040 3042 3041 3042 3042 3041 3040 3040 3040 3040 3039 3038 3038 3037 3036 3035 3034 3032 3032 3031 3030 3029 3028 3027 3027 3028
3080 3077 3073 3069 3065 3062 3057 3054 3049 3047 3044 3041 3039 3037 3037 3037 3037 3036 3037 3037 3037 3037 3037 3035 3035 3035 3036 3037 3036 3035 3033 3033 3033 3032 3031 3029 3026 3028 3027 3024 3023 3022 3021 3021 3022
3074 3071 3067 3064 3061 3057 3053 3049 3045 3042 3041 3037 3034 3035 3034 3034 3034 3033 3033 3032 3032 3032 3032 3032 3031 3031 3032 3033 3033 3031 3030 3030 3030 3029 3026 3023 3018 3022 3021 3016 3016 3015 3014 3014 3015
3066 3064 3060 3057 3054 3051 3049 3045 3044 3039 3036 3033 3031 3030 3030 3031 3030 3029 3029 3028 3028 3028 3029 3028 3028 3028 3029 3029 3029 3029 3027 3025 3025 3024 3019 3017 3011 3013 3013 3008 3007 3007 3007 3007 3007
3057 3055 3052 3051 3048 3045 3042 3039 3035 3035 3028 3028 3025 3023 3024 3025 3025 3025 3025 3026 3024 3025 3025 3026 3024 3024 3024 3025 3026 3025 3023 3021 3020 3018 3016 3011 3004 3003 3001 2999 2998 2997 2998 3000 3000
3045 3044 3042 3042 3040 3038 3036 3034 3030 3027 3024 3021 3019 3018 3020 3022 3021 3021 3022 3021 3021 3022 3021 3022 3023 3022 3022 3022 3022 3021 3020 3018 3017 3013 3011 3006 2997 2996 2996 2995 2994 2994 2994 2995 2995
3030 3029 3028 3030 3032 3029 3029 3026 3025 3023 3021 3016 3014 3015 3016 3017 3018 3018 3018 3020 3019 3018 3018 3017 3017 3018 3018 3018 3018 3017 3016 3015 3013 3011 3009 3007 3000 2994 2991 2991 2989 2991 2991 2993 2993
3016 3017 3015 3014 3018 3020 3021 3020 3019 3020 3024 3014 3011 3012 3013 3017 3016 3016 3016 3016 3015 3014 3017 3016 3015 3015 3014 3014 3013 3013 3013 3011 3010 3006 3005 3002 3003 2990 2990 2989 2989 2990 2991 2992 2990
3006 3005 3004 3006 3009 3011 3011 3013 3014 3020 3012 3008 3008 3009 3011 3012 3012 3013 3014 3013 3012 3011 3010 3011 3011 3010 3010 3010 3010 3011 3010 3008 3005 3002 3004 2999 3000 2989 2989 2989 2989 2990 2991 2988 2984
2994 2995 2992 2996 3001 3006 3007 3010 3013 3008 3004 3003 3003 3005 3007 3009 3009 3008 3010 3010 3011 3010 3008 3007 3007 3006 3006 3007 3007 3008 3009 3007 3005 3004 3001 2998 2997 2987 2988 2988 2988 2989 2988 2983 2978
2983 2982 2985 2989 2994 2998 3001 3005 3003 2999 2997 2997 2998 3001 3003 3005 3005 3004 3005 3006 3006 3007 3006 3005 3004 3004 3004 3005 3006 3007 3008 3007 3009 3004 3000 2996 2991 2987 2986 2986 2987 2987 2982 2976 2972
2974 2974 2980 2984 2985 2990 2995 2995 2994 2996 2996 2996 2996 2997 2999 3001 3003 3003 3002 3003 3004 3004 3006 3003 3002 3002 3003 3003 3005 3004 3004 3005 3005 3002 3003 2991 2987 2985 2984 2985 2985 2982 2977 2972 2968
2971 2969 2974 2976 2980 2985 2988 2986 2988 2992 2994 2994 2995 2995 2995 2997 3000 3000 2999 3000 3001 3002 3003 3003 3002 2999 3000 3000 3001 3002 3003 3003 3003 3004 3003 2988 2984 2982 2983 2983 2982 2978 2973 2969 2964
2970 2967 2968 2973 2978 2981 2981 2983 2982 2986 2991 2993 2993 2993 2993 2995 2997 2997 2998 2999 3000 3001 3001 3000 3001 3000 2999 2997 2997 2998 2998 3000 3001 3001 3000 2995 2982 2981 2981 2982 2978 2973 2967 2963 2959
2970 2969 2969 2971 2976 2976 2977 2980 2981 2981 2984 2988 2990 2991 2992 2993 2994 2995 2996 2996 2997 2998 2997 2998 2997 2995 2995 2994 2994 2994 2994 2996 2997 2997 2996 2994 2983 2979 2980 2979 2975 2969 2964 2960 2956
2969 2968 2969 2970 2972 2973 2975 2978 2980 2981 2981 2983 2986 2987 2989 2991 2994 2992 2993 2994 2995 2995 2996 2997 2996 2994 2991 2993 2991 2991 2991 2992 2993 2994 2990 2991 2979 2977 2976 2976 2972 2967 2962 2958 2955
2970 2967 2968 2968 2970 2972 2975 2976 2978 2978 2978 2981 2983 2984 2987 2988 2990 2990 2991 2992 2993 2994 2994 2994 2991 2992 2990 2989 2990 2988 2988 2988 2989 2988 2983 2977 2975 2974 2975 2975 2971 2965 2960 2956 2953
2969 2967 2966 2966 2968 2970 2973 2973 2974 2976 2977 2978 2980 2982 2984 2986 2988 2988 2989 2990 2990 2990 2990 2990 2987 2986 2985 2985 2983 2981 2980 2980 2980 2980 2978 2973 2971 2974 2974 2973 2968 2963 2959 2956 2952
2967 2966 2965 2965 2966 2968 2970 2970 2972 2974 2976 2977 2979 2980 2982 2984 2986 2986 2986 2987 2987 2986 2986 2986 2984 2981 2977 2977 2975 2974 2973 2972 2971 2972 2970 2970 2966 2970 2970 2969 2965 2962 2958 2955 2951
2965 2963 2963 2960 2964 2966 2967 2969 2970 2972 2975 2975 2977 2978 2980 2982 2982 2983 2982 2982 2983 2983 2982 2982 2981 2980 2975 2974 2972 2970 2968 2966 2965 2965 2966 2965 2968 2966 2967 2965 2963 2960 2957 2955 2951